TimeCST,TemperatureF,Dew PointF,Humidity,Sea Level PressureIn,VisibilityMPH,Wind Direction,Wind SpeedMPH,Gust SpeedMPH,PrecipitationIn,Events,Conditions,WindDirDegrees,DateUTC
12:15 AM,48.7,47.8,97,29.92,1.0,East,8.1,16.1,N/A,,Overcast,80,2014-03-01 06:15:00
12:35 AM,49.1,48.2,97,29.92,1.0,East,9.2,-,N/A,,Overcast,80,2014-03-01 06:35:00
12:50 AM,49.1,48.2,97,29.92,1.0,East,8.1,-,N/A,,Overcast,80,2014-03-01 06:50:00
1:15 AM,49.1,48.4,97,29.93,1.0,ENE,6.9,-,N/A,,Overcast,70,2014-03-01 07:15:00
1:35 AM,49.3,48.4,97,29.93,1.2,East,10.4,-,N/A,,Overcast,80,2014-03-01 07:35:00
1:55 AM,49.5,48.6,97,29.93,1.2,East,5.8,-,N/A,,Overcast,80,2014-03-01 07:55:00
2:15 AM,49.5,48.7,97,29.93,1.2,East,8.1,-,N/A,,Overcast,90,2014-03-01 08:15:00
2:35 AM,49.6,48.9,97,29.93,1.2,East,9.2,-,N/A,,Overcast,100,2014-03-01 08:35:00
2:55 AM,49.6,48.9,97,29.93,1.5,East,6.9,-,N/A,,Overcast,90,2014-03-01 08:55:00
3:15 AM,50.0,49.1,97,29.93,1.2,East,5.8,-,N/A,,Overcast,90,2014-03-01 09:15:00
3:35 AM,50.0,49.1,97,29.93,1.2,East,5.8,-,N/A,,Overcast,80,2014-03-01 09:35:00
3:55 AM,50.0,49.3,97,29.94,1.2,East,6.9,-,N/A,,Overcast,100,2014-03-01 09:55:00
4:15 AM,50.2,49.3,97,29.94,1.0,East,5.8,-,N/A,,Overcast,90,2014-03-01 10:15:00
4:35 AM,50.2,49.5,97,29.94,1.0,East,5.8,-,N/A,,Overcast,80,2014-03-01 10:35:00
4:55 AM,50.4,49.5,97,29.95,1.5,East,8.1,-,N/A,,Overcast,80,2014-03-01 10:55:00
5:15 AM,50.5,49.8,97,29.95,1.5,East,9.2,-,N/A,,Overcast,100,2014-03-01 11:15:00
5:35 AM,50.5,50.0,98,29.95,1.2,East,8.1,-,N/A,,Overcast,90,2014-03-01 11:35:00
5:55 AM,50.7,50.0,97,29.96,1.2,East,8.1,-,N/A,,Overcast,90,2014-03-01 11:55:00
6:15 AM,50.9,50.0,97,29.97,1.2,ESE,4.6,-,N/A,,Overcast,110,2014-03-01 12:15:00
6:35 AM,51.1,50.4,97,29.97,1.8,East,8.1,-,N/A,,Overcast,100,2014-03-01 12:35:00
6:55 AM,51.1,50.4,97,29.97,1.8,East,6.9,-,N/A,,Overcast,100,2014-03-01 12:55:00
7:15 AM,51.3,50.5,97,29.98,1.2,East,4.6,-,N/A,,Overcast,100,2014-03-01 13:15:00
7:35 AM,51.6,50.9,97,29.99,1.0,East,4.6,-,N/A,,Overcast,100,2014-03-01 13:35:00
7:55 AM,51.8,50.9,97,29.99,1.2,ESE,8.1,-,N/A,,Overcast,110,2014-03-01 13:55:00
8:15 AM,51.8,51.1,97,30.01,1.2,ESE,5.8,-,N/A,,Overcast,110,2014-03-01 14:15:00
8:35 AM,52.2,51.3,97,30.01,1.2,East,4.6,-,N/A,,Overcast,100,2014-03-01 14:35:00
8:55 AM,52.3,51.8,98,30.01,1.2,East,4.6,-,N/A,,Overcast,100,2014-03-01 14:55:00
9:15 AM,52.7,51.8,97,30.01,1.2,East,4.6,-,N/A,,Overcast,100,2014-03-01 15:15:00
9:35 AM,53.2,52.3,97,30.01,1.5,ESE,6.9,-,N/A,,Overcast,120,2014-03-01 15:35:00
9:55 AM,54.0,53.1,97,30.02,2.5,East,5.8,-,N/A,,Overcast,100,2014-03-01 15:55:00
10:15 AM,54.7,53.8,97,30.02,2.5,ESE,5.8,-,N/A,,Overcast,110,2014-03-01 16:15:00
10:35 AM,55.0,54.0,96,30.03,3.0,East,5.8,-,N/A,,Overcast,80,2014-03-01 16:35:00
10:55 AM,55.9,54.7,96,30.02,3.0,East,4.6,-,N/A,,Overcast,80,2014-03-01 16:55:00
11:15 AM,56.5,54.5,93,30.02,4.0,East,8.1,-,N/A,,Overcast,100,2014-03-01 17:15:00
11:35 AM,58.1,55.4,91,30.01,4.0,ESE,8.1,-,N/A,,Overcast,110,2014-03-01 17:35:00
11:55 AM,60.1,55.9,86,30.00,5.0,ESE,8.1,-,N/A,,Overcast,120,2014-03-01 17:55:00
12:15 PM,62.1,56.3,81,29.99,7.0,ESE,6.9,-,N/A,,Overcast,110,2014-03-01 18:15:00
12:35 PM,63.5,56.8,79,29.98,7.0,ESE,8.1,-,N/A,,Overcast,110,2014-03-01 18:35:00
12:55 PM,66.2,57.6,74,29.96,10.0,SE,5.8,-,N/A,,Overcast,130,2014-03-01 18:55:00
1:15 PM,68.2,58.1,70,29.95,10.0,SE,9.2,-,N/A,,Mostly Cloudy,130,2014-03-01 19:15:00
1:35 PM,69.6,58.5,68,29.94,10.0,SE,9.2,-,N/A,,Scattered Clouds,130,2014-03-01 19:35:00
1:55 PM,70.2,58.5,66,29.94,10.0,SSE,9.2,-,N/A,,Scattered Clouds,150,2014-03-01 19:55:00
2:15 PM,72.3,59.4,64,29.93,10.0,South,8.1,18.4,N/A,,Scattered Clouds,170,2014-03-01 20:15:00
2:35 PM,72.5,59.7,64,29.94,10.0,SE,8.1,-,N/A,,Mostly Cloudy,130,2014-03-01 20:35:00
2:55 PM,74.3,60.3,61,29.93,10.0,SSE,8.1,16.1,N/A,,Scattered Clouds,160,2014-03-01 20:55:00
3:15 PM,76.1,61.0,59,29.92,10.0,South,5.8,-,N/A,,Clear,180,2014-03-01 21:15:00
3:35 PM,77.0,61.0,58,29.91,10.0,SSE,9.2,-,N/A,,Scattered Clouds,150,2014-03-01 21:35:00
3:55 PM,77.7,61.7,58,29.90,10.0,SE,6.9,-,N/A,,Clear,140,2014-03-01 21:55:00
4:15 PM,77.2,61.9,59,29.90,10.0,SE,8.1,16.1,N/A,,Clear,130,2014-03-01 22:15:00
4:35 PM,75.9,62.2,62,29.89,10.0,ESE,8.1,-,N/A,,Clear,120,2014-03-01 22:35:00
4:55 PM,76.1,62.4,62,29.89,10.0,SE,9.2,-,N/A,,Clear,130,2014-03-01 22:55:00
5:15 PM,75.6,62.6,64,29.90,10.0,East,9.2,-,N/A,,Clear,100,2014-03-01 23:15:00
5:35 PM,74.5,62.6,66,29.90,10.0,ESE,11.5,-,N/A,,Clear,110,2014-03-01 23:35:00
5:55 PM,72.7,62.4,70,29.90,10.0,East,6.9,-,N/A,,Clear,100,2014-03-01 23:55:00
6:15 PM,71.1,61.9,73,29.89,10.0,East,8.1,-,N/A,,Clear,90,2014-03-02 00:15:00
6:35 PM,70.0,62.1,76,29.90,10.0,East,5.8,-,N/A,,Clear,100,2014-03-02 00:35:00
6:55 PM,69.1,62.4,79,29.90,10.0,ESE,8.1,-,N/A,,Clear,110,2014-03-02 00:55:00
7:15 PM,70.0,63.1,79,29.92,10.0,ESE,10.4,-,N/A,,Mostly Cloudy,120,2014-03-02 01:15:00
7:35 PM,69.6,63.5,81,29.93,10.0,ESE,8.1,-,N/A,,Overcast,120,2014-03-02 01:35:00
7:50 PM,69.8,63.5,80,29.92,10.0,ESE,9.2,-,N/A,,Overcast,120,2014-03-02 01:50:00
8:15 PM,68.7,63.1,82,29.93,10.0,East,5.8,-,N/A,,Scattered Clouds,100,2014-03-02 02:15:00
8:35 PM,69.1,63.5,82,29.95,10.0,SE,4.6,-,N/A,,Mostly Cloudy,140,2014-03-02 02:35:00
8:55 PM,69.1,63.5,82,29.95,10.0,SE,3.5,-,N/A,,Overcast,140,2014-03-02 02:55:00
9:15 PM,68.7,63.5,83,29.95,10.0,SE,4.6,-,N/A,,Overcast,140,2014-03-02 03:15:00
9:35 PM,67.5,63.0,85,29.93,10.0,ESE,4.6,-,N/A,,Mostly Cloudy,120,2014-03-02 03:35:00
9:55 PM,68.0,63.1,84,29.94,10.0,Calm,Calm,-,N/A,,Overcast,0,2014-03-02 03:55:00
10:15 PM,68.4,63.5,84,29.94,10.0,Calm,Calm,-,N/A,,Overcast,0,2014-03-02 04:15:00
10:35 PM,68.7,63.5,83,29.94,10.0,Calm,Calm,-,N/A,,Overcast,0,2014-03-02 04:35:00
10:55 PM,67.1,63.0,87,29.93,10.0,Calm,Calm,-,N/A,,Overcast,0,2014-03-02 04:55:00
11:15 PM,67.5,63.0,85,29.93,10.0,NNE,3.5,-,N/A,,Overcast,20,2014-03-02 05:15:00
11:35 PM,67.1,62.8,86,29.95,10.0,WNW,6.9,-,N/A,,Overcast,300,2014-03-02 05:35:00
11:55 PM,63.9,57.6,80,29.96,10.0,West,12.7,16.1,N/A,,Overcast,280,2014-03-02 05:55:00